Showing default

UM5-EOSAT, 60555

Orbit data source: Space-Track

UM5-EOSAT, 60555 is a Moroccan payload satellite in SSO that was launched on Fri, 16 Aug 2024 UTC via an FALCON 9 launch vehicle from the Air Force Western Test Range (AFWTR). Payload-class satellites include a variety of spacecraft equipped with specific instruments for various scientific and technological missions. These include communications satellites like Starlink; space stations such as the ISS; scientific satellites like the Hubble; Earth observation satellites from companies like Planet Labs, Umbra, and HawkEye 360; GPS; miniature CubeSats for education and research; and military/defense satellites.

Loading next visibility...
Identifier
60555, 2024-149CR
Orbit
SSO
Country
Flag of MAMA
Related business
Manufacturer
UM5R
Mission
Operational Amateur Imaging
Bus & Motor
CUBESAT 3U, Unknown motor
Mass
5 kg wet, 5 kg dry
Launch date (UTC)
2024-08-16 (1 year ago)
Launch vehicle
FALCON 9
Launch site
Air Force Western Test Range (AFWTR)
Object type
Payload
Rocket body
Debris
Shape & HBR
Box, 0.1 m
Radar Cross Section
0.080 m², Small (<0.1 m²)

Expand to show TLE details & history
Last TLE update: 23 hours ago

TLE from 23 hours ago
0 UM5-EOSAT
1 60555U 24149CR  26023.18215062  .00006400  00000-0  51291-3 0  9990
2 60555  97.7045 103.5892 0007463 232.8050 127.2493 15.00453024 78460
Epoch: 2026-01-23T04:22Z
TLE epoch observation values (Epoch: 2026-01-23T04:22:17.813Z)
Latitude
-0.00003°
Longitude
-84.50965°
Altitude
571.693 km
Speed
7.573 km/s
True Right ascension
06h 54m 21s
True Declination
0° 00' 00"
Sunlit
Object was in full shadow at epoch
Visualization orbit readout
Latitude
Unknown
Longitude
Unknown
Altitude
Unknown
Speed
Unknown
Apparent Right ascension
Unknown
Apparent Declination
Unknown
Sunlit
N/A
Visualization observer readout
Local Sidereal Time
04:13:57
Azimuth
Unknown
Elevation
Unknown
Doppler factor
Unknown
Orbital elements
Apogee altitude
567.683 km
Perigee altitude
557.323 km
Semi-major axis
6,940.64 km
Eccentricity
0.00075
Inclination
97.7045°
RAAN
103.5892°
Arg. of periapsis
232.805°
True anomaly
127.31734°
Mean anomaly
127.2493°
Eccentric anomaly
127.28332°
Mean motion
3.75356 °/min
Orbital period
95.91 mins
BSTAR
0.00051291
Loading maneuver chart data...
Computing Atmospheric mass density...
Loading historical data...
Loading historical data...
Loading historical data...
Loading historical data...
Loading historical data...
Loading historical data...
Loading historical data...

Documentation

Showing up to 5 results
|